Location: Tauranga
(37.6860°S, 176.1670°E)
Time: 22:21:31
(UTC+13:00)

Cosmos 1862 - Pass Details

Date: 24 January 2019
Orbit: 540 x 556 km, 82.5° (Epoch: 20 February)

Event Time Altitude Azimuth Distance (km) Brightness Sun altitude
Rises 22:23:26 0° 192° (SSW) 2,752 7.8 -18.5°
Reaches altitude 10° 22:25:39 10° 195° (SSW) 1,847 6.9 -18.8°
Maximum altitude 22:29:39 59° 274° (W) 640 3.8 -19.4°
Enters shadow 22:31:25 30° 342° (NNW) 996 4.4 -19.7°
